Location: 22
(39.7117°N, 89.5929°W)
Time: 12:06:31
(UTC-06:00)

Courier 1B Rocket - Visible Passes

Search period start: 30 January 2023 00:00
Search period end: 09 February 2023 00:00
Orbit: 920 x 1202 km, 28.3° (Epoch: 29 January)

Date Brightness Start Highest point End Pass type
(mag) Time Alt. Az. Time Alt. Az. Time Alt. Az.
30 Jan 6.2 18:57:29 10° SW 19:02:42 28° S 19:05:17 21° SE visible
30 Jan 7.2 20:50:01 10° WSW 20:51:39 17° SW 20:51:39 17° SW visible
31 Jan 6.5 17:56:59 10° SW 18:01:53 24° SSE 18:06:54 10° ESE visible
31 Jan 6.2 19:49:10 10° WSW 19:54:25 29° S 19:54:25 29° S visible
01 Feb 6.2 18:48:25 10° SW 18:53:41 29° S 18:57:12 18° SE visible
01 Feb 7.0 20:41:20 10° WSW 20:43:34 18° SW 20:43:34 18° SW visible
02 Feb 6.4 17:47:44 10° SW 17:52:52 27° S 17:58:05 10° ESE visible
02 Feb 6.2 19:40:22 10° WSW 19:45:30 27° S 19:46:22 26° S visible
03 Feb 6.3 18:39:28 10° WSW 18:44:41 28° S 18:49:13 13° SE visible
03 Feb 7.0 20:32:54 10° WSW 20:35:35 18° SW 20:35:35 18° SW visible
04 Feb 6.4 17:38:38 10° SW 17:43:53 28° S 17:49:08 10° ESE visible
04 Feb 6.5 19:31:41 10° WSW 19:36:29 23° SSW 19:38:28 20° SSE visible
05 Feb 6.5 18:30:38 10° WSW 18:35:41 26° S 18:40:47 10° SE visible
05 Feb 7.1 20:24:50 10° SW 20:27:46 15° SSW 20:27:46 15° SSW visible
06 Feb 6.9 19:23:14 10° WSW 19:27:26 19° SSW 19:30:45 13° SSE visible
07 Feb 6.8 18:21:56 10° WSW 18:26:39 23° SSW 18:31:24 10° SE visible
07 Feb 7.3 20:18:50 10° SSW 20:19:04 10° SSW 20:19:18 10° SSW visible
08 Feb 7.2 19:15:13 10° SW 19:18:20 14° SSW 19:21:28 10° S visible
